Location: İstanbul
(41.0082°N, 28.9784°E)
Time: 02:13:48
(UTC+03:00)

AAUSAT CUBESAT 2 - Visible Passes

Search period start: 24 April 2024 00:00
Search period end: 04 May 2024 00:00
Orbit: 518 x 527 km, 97.6° (Epoch: 22 April)

Date Brightness Start Highest point End Pass type
(mag) Time Alt. Az. Time Alt. Az. Time Alt. Az.
24 Apr ? 04:56:48 10° NE 05:00:04 27° E 05:03:20 10° SSE visible
25 Apr ? 04:44:19 10° NE 04:47:05 19° E 04:49:50 10° SE visible
26 Apr ? 04:32:05 10° ENE 04:34:00 13° E 04:35:54 10° ESE visible
29 Apr ? 05:25:15 10° NNE 05:29:02 62° ESE 05:32:48 10° S visible
30 Apr ? 05:12:07 10° NNE 05:15:44 41° E 05:19:20 10° S visible
01 May ? 04:59:01 10° NE 05:02:21 28° E 05:05:39 10° SSE visible
02 May ? 04:46:02 10° NE 04:48:51 20° E 04:51:40 10° SE visible
03 May ? 04:33:17 10° ENE 04:35:17 14° E 04:37:15 10° ESE visible
